Regional Weather Roundup
Issued by NWS

Home | Current Version | Previous Version | Graphics & Text | Print | Product List | Glossary On
Versions: 1 2 3 4 5 6 7 8 9 10 11 12 13 14 15 16 17 18 19 20 21 22 23 24 25 26 27 28 29 30 31 32 33 34 35 36 37 38 39 40 41 42 43 44 45 46 47 48 49 50
448
ASUS43 KLSX 110910
RWRMO

WEATHER SUMMARY FOR MISSOURI
NATIONAL WEATHER SERVICE SPRINGFIELD MO
300 AM CST THU FEB 11 2016

NOTE: "FAIR" INDICATES FEW OR NO CLOUDS BELOW 12,000 FEET WITH NO
       SIGNIFICANT WEATHER AND/OR OBSTRUCTIONS TO VISIBILITY.
       CURRENT SKY AND/OR WEATHER CONDITIONS ARE NOT AVAILABLE FOR
       CHILLICOTHE AND FARMINGTON.

MOZ001>031-035>038-043-044-053-054-111000-
...NORTHERN AND WESTERN MISSOURI...

CITY           SKY/WX    TMP DP  RH WIND       PRES   REMARKS
KANSAS CTY INT PTCLDY    23  20  88 NE9       30.14R WCI  13
KANSAS C DTWN  CLEAR     25  19  78 E12       30.15R WCI  14
LEE`S SUMMIT   CLEAR     24  19  81 NE14      30.13R WCI  12
ST JOSEPH      CLOUDY    23  18  81 NE8       30.19R WCI  14
CHILLICOTHE      N/A     24  18  77 NE7       30.19R WCI  16
KIRKSVILLE     CLOUDY    20  14  77 NE13      30.20R WCI   7

$$
MOZ066>068-077>081-088>096-101>105-111000-
...SOUTHWEST MISSOURI...

CITY           SKY/WX    TMP DP  RH WIND       PRES   REMARKS
SPRINGFIELD    CLEAR     30  16  56 SE6       29.99R WCI  24
JOPLIN         PTCLDY    33  23  66 CALM      30.01R

$$
MOZ032>034-039>042-045>050-055>058-069>072-111000-
...CENTRAL MISSOURI...

CITY           SKY/WX    TMP DP  RH WIND       PRES   REMARKS
COLUMBIA       CLOUDY    23  18  81 NE12      30.14R WCI  12
JEFFERSON CITY CLOUDY    26  19  74 NE7       30.16R WCI  18
ROLLA          CLOUDY    22  18  85 NE10      30.10R WCI  11
SEDALIA        CLEAR     25  18  74 NE7       30.14R WCI  17
WHITEMAN AFB   PTCLDY    23  19  84 NE9       30.12R WCI  13
WARRENSBURG    CLEAR     23  19  86 N8        30.14R WCI  14
OSAGE BEACH    CLOUDY    25  16  68 NE7       30.12R WCI  17

$$
MOZ051-052-059>065-111000-
...EAST CENTRAL MISSOURI...

CITY           SKY/WX    TMP DP  RH WIND       PRES   REMARKS
ST LOUIS INTL  CLOUDY    24  18  77 CALM      30.19R
SPIRIT OF STL  CLOUDY    24  20  84 NE6       30.18R WCI  17
ST CHARLES     CLOUDY    22  18  85 NE9       30.20R WCI  12

$$
MOZ072>076-082>087-097>100-106>115-111000-
...SOUTH CENTRAL AND SOUTHEAST MISSOURI...

CITY           SKY/WX    TMP DP  RH WIND       PRES   REMARKS
CAPE GIRARDEAU CLOUDY    22  18  85 NE6       30.15R WCI  14
FARMINGTON     CLOUDY    22  19  89 NE8       30.14R WCI  12
POPLAR BLUFF   CLEAR     23  19  85 NE8       30.10R WCI  14
WEST PLAINS    CLOUDY    23  10  57 CALM      30.03F

$$




USA.gov is the U.S. government's official web portal to all federal, state and local government web resources and services.